Overview Statistics Trail Chart Weather Telemetry Raw packets
 

This is the latest recevied weather packets stored in our database for station/object YD8XVB-13. If no packets are shown the sender has not sent any weather packets the latest 10 day(s).

<< 1 2 3 4 5 >>
Time Temp. Humidity Pressure Rain* Wind** Luminosity Snow
1777779314 37.78° C 14% 0 hPa - - 0 W/m² -
1777779014 36.67° C 11% 0 hPa - - 0 W/m² -
1777778714 36.67° C 11% 0 hPa - - 0 W/m² -
1777778414 35.56° C 10% 0 hPa - - 0 W/m² -
1777778114 36.11° C 11% 0 hPa - - 0 W/m² -
1777777814 36.11° C 29% 0 hPa - - 0 W/m² -
1777777514 35.56° C 10% 0 hPa - - 0 W/m² -
1777777214 35° C 10% 0 hPa - - 0 W/m² -
1777774392 35.56° C 95% 0 hPa - - 0 W/m² -
1777774092 35.56° C 95% 0 hPa - - 0 W/m² -
1777773491 36.11° C 11% 0 hPa - - 0 W/m² -
1777772890 36.11° C 95% 0 hPa - - 0 W/m² -
1777772590 35° C 95% 0 hPa - - 0 W/m² -
1777771988 35° C 95% 0 hPa - - 0 W/m² -
1777771689 34.44° C 95% 0 hPa - - 0 W/m² -
1777771087 35° C 95% 0 hPa - - 0 W/m² -
1777770786 33.89° C 95% 0 hPa - - 0 W/m² -
1777770185 33.89° C 95% 0 hPa - - 0 W/m² -
1777769885 34.44° C 95% 0 hPa - - 0 W/m² -
1777769283 33.89° C 95% 0 hPa - - 0 W/m² -
1777768682 33.33° C 95% 0 hPa - - 0 W/m² -
1777768080 33.33° C 95% 0 hPa - - 0 W/m² -
1777767780 33.33° C 95% 0 hPa - - 0 W/m² -
1777767179 32.22° C 95% 0 hPa - - 0 W/m² -
1777766878 32.78° C 95% 0 hPa - - 0 W/m² -

* Rain since midnight (hover to see other rain measurements)
** Current wind speed in m/s (hover to see current wind gust speed)